Weather History for KTYS - June, 2013

Change the Weather History Date:

Monday, June 10, 2013

  Actual Average Record
Temperature  
Mean Temperature 75 °F 74 °F  
Max Temperature 82 °F 84 °F 99 °F (1898)
Min Temperature 68 °F 64 °F 49 °F (1877)
Degree Days  
Heating Degree Days 0 0  
Month to date heating degree days 0 0  
Since 1 June heating degree days 0 0  
Since 1 July heating degree days 3625 3633  
Cooling Degree Days 10 9  
Month to date cooling degree days 96 80  
Year to date cooling degree days 252 242  
Since 1 June cooling degree days 96 80  
Growing Degree Days 25 (Base 50)    
Moisture  
Dew Point 66 °F    
Average Humidity 76    
Maximum Humidity 97    
Minimum Humidity 54    
Precipitation  
Precipitation 0.52 in 0.13 in 1.11 in (1941)
Month to date precipitation 4.80 1.24  
Year to date precipitation 36.22 22.68  
Snow  
Snow 0.00 in 0.00 in - ()
Month to date snowfall 0.0 0.0  
Since 1 June snowfall 0.0 0.0  
Since 1 July snowfall 3.8 6.5  
Snow Depth 0.00 in    
Sea Level Pressure  
Sea Level Pressure 29.92 in    
Wind  
Wind Speed 12 mph (SW)    
Max Wind Speed 23 mph    
Max Gust Speed 32 mph    
Visibility 8 miles    
Events Rain , Thunderstorm    
T = Trace of Precipitation, MM = Missing Value Source: NWS Daily Summary

Daily Weather History Graph

Daily Weather History Graph

Search for Another Location

Airport or City:

Trip Planner

Search our weather history database for the weather conditions in past years. The results will help you decide how hot, cold, wet, or windy it might be!

Date:

Astronomy

Jun. 10, 2013 Rise Set
Actual Time 6:19 AM EDT 8:51 PM EDT
Civil Twilight 5:49 AM EDT 9:21 PM EDT
Nautical Twilight 5:12 AM EDT 9:59 PM EDT
Astronomical Twilight 4:30 AM EDT 10:40 PM EDT
Moon 8:04 AM EDT (6/10) 10:21 PM EDT (6/10)
Length of Visible Light 15h 32m
Length of Day
14h 32m
Waxing Crescent, 4% of the Moon is Illuminated
Jun 10
Waxing Crescent
Jun 16
First Quarter
Jun 23
Full
Jun 30
Last Quarter
Jul 8
New

Hourly Weather History & Observations

Time (EDT) Temp. Heat Index Dew Point Humidity Pressure Visibility Wind Dir Wind Speed Gust Speed Precip Events Conditions
12:53 AM 70.0 °F - 68.0 °F 93% 29.95 in 10.0 mi Calm Calm - N/A   Mostly Cloudy
1:53 AM 69.1 °F - 68.0 °F 96% 29.93 in 10.0 mi Calm Calm - N/A   Overcast
2:53 AM 69.1 °F - 66.9 °F 93% 29.92 in 10.0 mi Calm Calm - N/A   Overcast
3:53 AM 69.1 °F - 66.9 °F 93% 29.91 in 6.0 mi Calm Calm - N/A   Overcast
4:27 AM 71.6 °F - 66.2 °F 83% 29.93 in 10.0 mi SW 12.7 mph - N/A   Overcast
4:53 AM 71.1 °F - 66.0 °F 84% 29.91 in 10.0 mi SW 12.7 mph - N/A   Overcast
5:02 AM 71.6 °F - 66.2 °F 83% 29.93 in 10.0 mi SW 12.7 mph - N/A   Overcast
5:21 AM 69.8 °F - 66.2 °F 88% 29.93 in 10.0 mi SW 11.5 mph - N/A   Overcast
5:53 AM 70.0 °F - 64.9 °F 84% 29.91 in 10.0 mi SW 12.7 mph 21.9 mph N/A   Mostly Cloudy
6:53 AM 70.0 °F - 64.9 °F 84% 29.92 in 10.0 mi SW 9.2 mph - N/A   Mostly Cloudy
7:53 AM 71.1 °F - 66.0 °F 84% 29.91 in 10.0 mi SSW 9.2 mph - N/A   Overcast
8:45 AM 69.8 °F - 66.2 °F 88% 29.96 in 1.5 mi SSW 16.1 mph - 0.01 in Rain Rain
8:53 AM 69.1 °F - 66.0 °F 90% 29.93 in 3.0 mi SSW 11.5 mph - 0.10 in Rain Heavy Rain
9:14 AM 69.8 °F - 66.2 °F 88% 29.97 in 2.0 mi SW 12.7 mph - 0.05 in Rain Heavy Rain
9:28 AM 69.8 °F - 66.2 °F 88% 29.96 in 3.0 mi SSE 18.4 mph 26.5 mph 0.18 in Rain Heavy Rain
9:53 AM 71.1 °F - 66.9 °F 87% 29.92 in 10.0 mi SSW 13.8 mph - 0.20 in Rain Light Rain
10:39 AM 71.6 °F - 68.0 °F 88% 29.96 in 10.0 mi SW 16.1 mph - 0.00 in   Mostly Cloudy
10:51 AM 71.6 °F - 66.2 °F 83% 29.96 in 10.0 mi SW 21.9 mph 29.9 mph 0.00 in   Mostly Cloudy
10:53 AM 72.0 °F - 66.9 °F 84% 29.94 in 10.0 mi SW 23.0 mph 28.8 mph 0.00 in   Mostly Cloudy
11:53 AM 73.0 °F - 66.0 °F 79% 29.95 in 10.0 mi SW 18.4 mph - N/A   Mostly Cloudy
12:53 PM 73.9 °F - 64.9 °F 73% 29.95 in 10.0 mi SW 18.4 mph - N/A   Mostly Cloudy
1:53 PM 77.0 °F - 64.9 °F 66% 29.94 in 10.0 mi SW 15.0 mph 20.7 mph N/A   Scattered Clouds
2:53 PM 79.0 °F - 64.0 °F 60% 29.92 in 10.0 mi SW 18.4 mph 24.2 mph N/A   Scattered Clouds
3:53 PM 81.0 °F 82.5 °F 64.0 °F 56% 29.91 in 10.0 mi SSW 17.3 mph - N/A   Mostly Cloudy
4:53 PM 81.0 °F 82.2 °F 63.0 °F 54% 29.87 in 10.0 mi SSW 15.0 mph - N/A   Scattered Clouds
5:53 PM 80.1 °F 81.7 °F 64.0 °F 58% 29.88 in 10.0 mi SW 12.7 mph - N/A   Mostly Cloudy
6:53 PM 79.0 °F - 63.0 °F 58% 29.87 in 10.0 mi SSW 13.8 mph - N/A   Mostly Cloudy
7:38 PM 77.0 °F - 64.4 °F 65% 29.90 in 10.0 mi SSW 11.5 mph - N/A Thunderstorm Thunderstorm
7:53 PM 78.1 °F - 64.0 °F 62% 29.87 in 10.0 mi SSW 11.5 mph - N/A Thunderstorm Thunderstorm
8:16 PM 75.2 °F - 64.4 °F 69% 29.89 in 10.0 mi SW 10.4 mph - N/A   Mostly Cloudy
8:53 PM 73.9 °F - 64.0 °F 71% 29.87 in 10.0 mi SSW 10.4 mph - N/A   Scattered Clouds
9:53 PM 75.9 °F - 64.0 °F 67% 29.88 in 10.0 mi SW 13.8 mph - N/A   Overcast
10:49 PM 71.6 °F - 66.2 °F 83% 29.96 in 1.5 mi WNW 18.4 mph 26.5 mph 0.01 in Rain Heavy Rain
10:53 PM 70.0 °F - 66.9 °F 90% 29.93 in 1.5 mi West 17.3 mph 26.5 mph 0.15 in Rain Rain
11:02 PM 69.8 °F - 68.0 °F 94% 29.95 in 4.0 mi WSW 11.5 mph - 0.07 in Rain Light Rain
11:53 PM 69.1 °F - 66.9 °F 93% 29.93 in 10.0 mi West 5.8 mph - 0.07 in   Scattered Clouds